Location: Le Rocchette
(44.3500°N, 7.8333°E)
Time: 23:54:20
(UTC+00:00)

CZ-2C R/B - Pass Details

Date: 17 November 2019
Orbit: 667 x 785 km, 98.1° (Epoch: 06 December)

Event Time Altitude Azimuth Distance (km) Brightness Sun altitude
Rises 04:44:31 0° 4° (N) 3,177 5.7 -18.2°
Reaches altitude 10° 04:47:00 10° 356° (N) 2,231 4.8 -17.7°
Maximum altitude 04:51:21 33° 293° (WNW) 1,184 2.9 -17.0°
Enters shadow 04:53:03 26° 255° (WSW) 1,384 3.3 -16.7°
